FW0693 Weather Reports


time (UTC)temp
F
wind
direction
speed
knots
gust
knots
rain 1hr
in
rain 24hr
in
rain mn
in
humidity
%
barometer
mb
20260505181513 52 26 3.5 7.0 0.04 0.05 0.04 91 1007.2
20260505180051 52 10 3.5 7.0 0.02 0.03 0.02 91 1007.2
20260505174513 52 346 1.7 7.0 0.01 0.02 0.01 90 1007.1
20260505173032 52 334 3.5 8.7 0.01 0.02 0.01 90 1007.0
20260505170033 52 27 0.9 7.8 0.01 0.01 0.01 90 1007.1
20260505164605 53 349 2.6 7.0 0.00 0.00 0.00 90 1007.2
20260505163024 53 16 5.2 9.6 0.00 0.00 0.00 90 1007.2
20260505161603 53 355 1.7 8.7 0.00 0.00 0.00 90 1007.2
20260505153011 53 9 5.2 9.6 0.00 0.00 0.00 89 1007.4
20260505151537 54 41 2.6 13.0 0.00 0.00 0.00 89 1007.4
20260505124536 57 341 7.8 13.0 0.00 0.03 0.00 85 1008.0
20260505123055 58 26 5.2 12.2 0.00 0.03 0.00 85 1008.0
20260505121512 58 12 3.5 9.6 0.00 0.03 0.00 87 1008.0
20260505120049 57 355 3.5 7.0 0.00 0.03 0.00 86 1008.0
20260505114600 57 327 2.6 7.8 0.00 0.03 0.00 85 1008.1
20260505113021 58 350 3.5 9.6 0.00 0.03 0.00 84 1008.2
20260505111544 58 360 3.5 9.6 0.00 0.03 0.00 84 1008.2
20260505101531 58 298 4.3 9.6 0.00 0.03 0.00 84 1008.6
20260505100051 59 317 1.7 6.1 0.00 0.03 0.00 85 1008.6
20260505094501 59 323 4.3 7.8 0.00 0.03 0.00 84 1008.6
20260505093026 60 309 2.6 7.0 0.00 0.03 0.00 83 1008.6
20260505091606 60 315 2.6 5.2 0.00 0.03 0.00 84 1008.7
20260505090023 59 136 0.9 3.5 0.00 0.03 0.00 84 1008.6
20260505084546 58 355 0.0 4.3 0.00 0.03 0.00 89 1008.7
20260505083017 57 149 0.0 4.3 0.00 0.03 0.00 90 1008.8
20260505081536 57 12 0.0 2.6 0.00 0.03 0.00 92 1008.9
20260505080103 57 360 0.9 2.6 0.00 0.03 0.00 93 1008.9
20260505074532 55 140 0.0 2.6 0.00 0.03 0.00 93 1009.0
20260505073133 55 140 0.9 2.6 0.00 0.03 0.00 93 1009.1
20260505071532 55 142 0.0 0.0 0.00 0.03 0.00 93 1009.2
20260505070059 54 69 0.0 0.0 0.00 0.03 0.00 93 1009.3
20260505064524 54 323 0.0 1.7 0.00 0.03 0.00 93 1009.4
20260505063007 53 338 0.0 0.0 0.00 0.03 0.00 93 1009.5
20260505061555 52 336 0.0 0.0 0.00 0.03 0.00 93 1009.5
20260505060046 51 336 0.0 0.0 0.00 0.03 0.00 92 1009.4
20260505054518 51 329 0.0 0.9 0.00 0.03 0.00 92 1009.5
20260505053013 51 284 0.9 2.6 0.00 0.03 0.00 92 1009.5
20260505051602 50 287 1.7 2.6 0.00 0.03 0.00 92 1009.6
20260505041549 50 298 1.7 2.6 0.00 0.03 0.00 91 1009.4
20260505040013 50 296 0.9 3.5 0.00 0.03 0.00 91 1009.5
20260505034537 50 32 0.0 0.0 0.00 0.03 0.00 91 1009.4
20260505033007 50 35 0.0 0.0 0.00 0.03 0.00 91 1009.7
20260505031544 50 35 0.0 0.0 0.00 0.03 0.00 91 1010.0
20260505030007 50 35 0.0 0.0 0.00 0.03 0.00 91 1010.1
20260505024531 50 36 0.0 0.0 0.00 0.03 0.00 91 1010.2
20260505023056 50 36 0.0 0.0 0.00 0.03 0.00 90 1010.1
20260505021513 50 36 0.0 0.0 0.00 0.03 0.00 90 1010.3
20260505020039 50 36 0.0 0.0 0.00 0.03 0.00 90 1010.3
20260505014509 50 36 0.0 0.0 0.00 0.03 0.00 90 1010.4
20260505013010 50 36 0.0 0.0 0.00 0.03 0.00 89 1010.3
20260505011541 50 36 0.0 0.0 0.00 0.03 0.00 89 1010.2
20260505010002 51 36 0.0 0.0 0.00 0.03 0.00 89 1010.2
20260505004528 51 51 0.0 0.0 0.00 0.03 0.00 89 1010.2
20260505003053 52 109 0.0 0.0 0.00 0.03 0.00 90 1010.5
20260505001509 52 144 0.0 0.0 0.00 0.03 0.00 90 1010.7
20260505000050 53 144 0.0 0.0 0.00 0.03 0.00 90 1010.8
20260504234504 53 144 0.0 0.0 0.00 0.03 0.00 90 1010.9
20260504233031 53 144 0.0 0.0 0.00 0.03 0.00 90 1011.0
20260504231603 53 144 0.0 0.0 0.00 0.03 0.00 89 1011.1
20260504230023 53 144 0.0 0.0 0.00 0.03 0.00 89 1011.1
20260504224554 53 144 0.0 0.0 0.00 0.03 0.00 89 1011.3
20260504223030 53 144 0.0 0.0 0.00 0.03 0.00 89 1011.4
20260504221508 54 144 0.0 0.0 0.00 0.03 0.00 89 1011.5
20260504220046 54 144 0.0 0.0 0.00 0.03 0.00 89 1011.7
20260504214528 54 144 0.0 0.0 0.00 0.03 0.03 89 1011.7
20260504213009 54 146 0.0 0.0 0.00 0.03 0.03 88 1011.9
20260504211555 55 146 0.0 0.0 0.00 0.03 0.03 88 1012.0
20260504210031 55 146 0.0 0.0 0.00 0.03 0.03 88 1012.0
20260504204514 55 146 0.0 0.0 0.00 0.03 0.03 88 1012.0
20260504203036 55 146 0.0 0.0 0.00 0.03 0.03 87 1012.1
20260504201504 55 146 0.0 0.0 0.00 0.03 0.03 87 1012.2
20260504200044 56 145 0.0 0.0 0.00 0.03 0.03 87 1012.2
20260504194511 56 144 0.0 0.0 0.00 0.03 0.03 86 1012.1
20260504193039 56 144 0.0 0.0 0.00 0.03 0.03 86 1011.9
20260504191501 56 144 0.0 0.0 0.00 0.03 0.03 86 1011.8
20260504190029 56 144 0.0 2.6 0.00 0.03 0.03 86 1011.8
20260504184638 56 144 0.0 2.6 0.00 0.03 0.03 85 1011.7
20260504183027 57 150 1.7 7.0 0.00 0.03 0.03 85 1011.6
20260504181551 57 113 0.9 7.0 0.00 0.03 0.03 85 1011.7